{"data":{"norad_id":57681,"intl_designator":"2023-124U","name":"STARLINK-30273","alt_names":[],"object_type":"PAYLOAD","status":"ACTIVE","operator":null,"country":"US","launch_date":"2023-08-22","launch_site_code":"AFWTR","launch_vehicle":null,"mission":null,"orbit_class":"UNKNOWN","rcs_meters":null,"size_class":null,"mass_kg":null,"dimensions":null,"purposes":["comms"],"wikipedia_slug":null,"has_3d_model":false,"image_url":null,"decayed_at":null,"tle_current":{"epoch":"2026-05-25T04:06:56.424096Z","epoch_age_seconds":50510,"freshness":"FRESH","line1":"1 57681U 23124U   26145.17148639  .00000310  00000+0  21740-4 0  9997","line2":"2 57681  53.1601 211.5442 0001087  88.0965 272.0161 15.31699730155279","mean_motion":15.3169973,"eccentricity":0.0001087,"inclination_deg":53.1601,"raan_deg":211.5442,"arg_perigee_deg":88.0965,"mean_anomaly_deg":272.0161,"bstar":2.174e-5,"rev_number":15527,"period_min":94.013204533241,"perigee_km":469.99632706485,"apogee_km":471.48527309858,"semimajor_km":6848.8778000817,"source":"CELESTRAK","updated_at":"2026-05-25T13:38:18.370076Z"}}}